Location: Gleizolles
(44.4833°N, 6.7667°E)
Time: 05:57:29
(UTC+00:00)

Vanguard 2 - Pass Details

Date: 02 July 2024
Orbit: 552 x 2913 km, 32.9° (Epoch: 17 July)

Event Time Altitude Azimuth Distance (km) Brightness Sun altitude
Exits shadow 01:52:36 19° 197° (SSW) 3,189 10.1 -15.7°
Maximum altitude 01:58:42 33° 149° (SSE) 2,964 10.3 -15.2°
Drops below altitude 10° 02:10:56 10° 94° (E) 5,293 12.2 -13.9°
Sets 02:16:12 0° 86° (E) 6,550 12.9 -13.3°
